+ View the NASA Portal
+ Center for Near-Earth Object Studies
JPL Small-Body Database Browser
Search:
[
help
]
26060 (1164 T-3)
Classification:
Main-belt Asteroid
SPK-ID:
2026060
[
Ephemeris
|
Orbit Diagram
|
Orbital Elements
|
Mission Design
|
Physical Parameters
|
Discovery Circumstances
|
Close-Approach Data
]
[ show orbit diagram ]
Orbital Elements at Epoch 2459200.5 (2020-Dec-17.0) TDB
Reference:
JPL 33
(heliocentric ecliptic J2000)
Element
Value
Uncertainty (1-sigma)
Units
e
.08227867617260116
3.9338e-08
a
2.988731122166551
1.8569e-08
au
q
2.742822281998834
1.1985e-07
au
i
11.04856688626359
4.1411e-06
deg
node
243.6454565746666
2.6074e-05
deg
peri
45.60330593265054
4.1125e-05
deg
M
212.2793455505008
3.3472e-05
deg
t
p
2459974.903697885164
(2023-Jan-30.40369789)
0.0001771
TDB
period
1887.246792113058
5.17
1.7588e-05
4.815e-08
d
yr
n
.1907540664551484
1.7777e-09
deg/d
Q
3.234639962334267
2.0097e-08
au
Orbit Determination Parameters
# obs. used (total)
1151
data-arc span
15807 days (43.28 yr)
first obs. used
1977-10-07
last obs. used
2021-01-16
planetary ephem.
DE431
SB-pert. ephem.
SB431-N16
condition code
0
norm. resid. RMS
.5135
source
ORB
producer
Otto Matic
solution date
2021-Feb-24 03:17:27
Additional Information
Earth MOID
= 1.73755 au
Jupiter MOID
= 1.88786 au
T_jup
= 3.224
[ hide covariance matrix ]
Orbital Elements at Epoch 2457419.5 (2016-Feb-01.0) TDB
Reference:
JPL 33
(heliocentric ecliptic J2000)
Element
Value
Uncertainty (1-sigma)
Units
e
.08344042080418146
3.9314e-08
q
2.740657273674314
1.2006e-07
au
t
p
2458080.925066468337
(2017-Nov-23.42506647)
0.00017165
TDB
node
243.7883016672702
2.6122e-05
deg
peri
44.13982023729254
4.0826e-05
deg
i
11.03529182088345
4.1375e-06
deg
Orbit Determination Parameters
# obs. used (total)
1151
data-arc span
15807 days (43.28 yr)
first obs. used
1977-10-07
last obs. used
2021-01-16
planetary ephem.
DE431
SB-pert. ephem.
SB431-N16
condition code
0
norm. resid. RMS
.5135
source
ORB
producer
Otto Matic
solution date
2021-Feb-24 03:17:27
Additional Information
Jupiter MOID
= 1.88786 au
T_jup
= 3.224
Orbit Covariance (6×6)
e
q
tp
node
peri
i
e
1.545616100924717E-15
-4.672286028506414E-15
1.577293565206281E-12
-1.051466934079545E-14
2.925306949531695E-13
8.645688045208967E-16
q
-4.672286028506414E-15
1.441529210175051E-14
-4.185055874133521E-12
3.354073049083353E-14
-8.006854511621052E-13
-3.231704491323668E-15
tp
1.577293565206281E-12
-4.185055874133521E-12
2.94623177056694E-8
-2.667779265312377E-11
5.421361018542978E-9
4.521734470403125E-13
node
-1.051466934079545E-14
3.354073049083353E-14
-2.667779265312377E-11
6.823554561727529E-10
-6.745136095918314E-10
-8.324462503256386E-12
peri
2.925306949531695E-13
-8.006854511621052E-13
5.421361018542978E-9
-6.745136095918314E-10
1.666754307483208E-9
8.239141862827563E-12
i
8.645688045208967E-16
-3.231704491323668E-15
4.521734470403125E-13
-8.324462503256386E-12
8.239141862827563E-12
1.711873285064613E-11
[
Ephemeris
|
Orbit Diagram
|
Orbital Elements
|
Mission Design
|
Physical Parameters
|
Discovery Circumstances
|
Close-Approach Data
]
Physical Parameter Table
Parameter
Symbol
Value
Units
Sigma
Reference
Notes
absolute magnitude
H
14.01
n/a
E2021B10
diameter
diameter
6.460
km
0.112
urn:nasa:pds:neowise_diameters_albedos::2.0[mainbelt] (http://adsabs.harvard.edu/abs/2011ApJ...741...68M)
geometric albedo
albedo
0.106
0.022
urn:nasa:pds:neowise_diameters_albedos::2.0[mainbelt] (http://adsabs.harvard.edu/abs/2011ApJ...741...68M)
26060 (1164 T-3)
Discovered 1977-Oct-17 by van Houten, C. J., van Houten-Groeneveld, I., Gehrels, T. at Palomar
Reference:
20010606/Numbers.arc
Last Updated:
2004-04-19
[ show close-approach data ]
Alternate Designations
1164 T-3
= 1997 MK
[
Ephemeris
|
Orbit Diagram
|
Orbital Elements
|
Mission Design
|
Physical Parameters
|
Discovery Circumstances
|
Close-Approach Data
]
2021-Mar-05 11:31 UT
(server date/time)
Site Manager:
Ryan S. Park
Webmaster
:
Alan B. Chamberlin